Guam Agana, GU

3:13 PM ChST on October 24, 2019 (GMT +1000)
Guam International

Weather History for PGUM - August, 2019

Change the Weather History Date:

Saturday, August 10, 2019

  Actual Average Record
Temperature  
Mean Temperature 84 °F -  
Max Temperature 87 °F 84 °F 91 °F (2014)
Min Temperature 80 °F 75 °F 75 °F (1997)
Cooling Degree Days 18    
Growing Degree Days 34 (Base 50)    
Moisture  
Dew Point 76 °F    
Average Humidity 78    
Maximum Humidity 89    
Minimum Humidity 69    
Precipitation  
Precipitation 0.00 in - - ()
Sea Level Pressure  
Sea Level Pressure 29.77 in    
Wind  
Wind Speed 9 mph (SW)    
Max Wind Speed 17 mph    
Max Gust Speed 25 mph    
Visibility 10 miles    
Events      
Averages and records for this station are not official NWS values.
T = Trace of Precipitation, MM = Missing Value Source: NWS Daily Summary

Daily Weather History Graph

Daily Weather History Graph

Search for Another Location

Airport or City:

Astronomy

Aug. 10, 2019 Rise Set
Actual Time 6:07 AM ChST 6:45 PM ChST
Civil Twilight 5:45 AM ChST 7:07 PM ChST
Nautical Twilight 5:18 AM ChST 7:33 PM ChST
Astronomical Twilight 4:52 AM ChST 7:59 PM ChST
Moon 2:33 PM ChST (8/10) 1:26 AM ChST (8/10)
Length of Visible Light 13h 22m
Length of Day
12h 37m
Waxing Gibbous, 74% of the Moon is Illuminated
Aug 10
Waxing Gibbous
Aug 15
Full
Aug 24
Last Quarter
Aug 30
New
Sep 6
First Quarter

Hourly Weather History & Observations

Time (ChST) Temp. Heat Index Dew Point Humidity Pressure Visibility Wind Dir Wind Speed Gust Speed Precip Events Conditions
12:54 AM 80.1 °F 85.4 °F 75.9 °F 87% 29.78 in 10.0 mi WSW 6.9 mph - N/A   Clear
1:54 AM 80.1 °F 85.4 °F 75.9 °F 87% 29.78 in 10.0 mi WSW 6.9 mph - N/A   Clear
2:54 AM 80.1 °F 85.1 °F 75.0 °F 85% 29.76 in 10.0 mi WSW 8.1 mph - N/A   Clear
3:54 AM 80.1 °F 85.4 °F 75.9 °F 87% 29.76 in 10.0 mi WSW 6.9 mph - N/A   Clear
4:54 AM 80.1 °F 85.4 °F 75.9 °F 87% 29.76 in 10.0 mi WSW 8.1 mph - N/A   Clear
5:54 AM 80.1 °F 85.1 °F 75.0 °F 85% 29.78 in 10.0 mi Variable 6.9 mph - N/A   Clear
6:54 AM 81.0 °F 87.3 °F 75.9 °F 85% 29.79 in 10.0 mi WSW 6.9 mph - N/A   Clear
7:54 AM 82.9 °F 90.8 °F 75.9 °F 79% 29.80 in 10.0 mi SW 4.6 mph - N/A   Clear
8:54 AM 84.0 °F 93.7 °F 77.0 °F 79% 29.82 in 10.0 mi WSW 9.2 mph - N/A   Partly Cloudy
9:54 AM 84.9 °F 95.3 °F 77.0 °F 77% 29.80 in 10.0 mi WSW 11.5 mph - N/A   Clear
10:54 AM 87.1 °F 97.3 °F 75.9 °F 69% 29.80 in 10.0 mi WSW 15.0 mph 23.0 mph N/A   Partly Cloudy
11:54 AM 86.0 °F 95.1 °F 75.0 °F 70% 29.78 in 10.0 mi WSW 10.4 mph 20.7 mph N/A   Scattered Clouds
12:54 PM 86.0 °F 96.0 °F 75.9 °F 72% 29.76 in 10.0 mi WSW 13.8 mph - N/A   Partly Cloudy
1:54 PM 86.0 °F 96.0 °F 75.9 °F 72% 29.75 in 10.0 mi WSW 16.1 mph 25.3 mph N/A   Mostly Cloudy
2:54 PM 86.0 °F 96.9 °F 77.0 °F 74% 29.73 in 10.0 mi WSW 11.5 mph - N/A   Mostly Cloudy
3:54 PM 84.9 °F 94.1 °F 75.9 °F 74% 29.73 in 10.0 mi WSW 17.3 mph 24.2 mph N/A   Mostly Cloudy
4:08 PM 84.9 °F 95.3 °F 77.0 °F 77% 29.75 in 10.0 mi WSW 10.4 mph - N/A   Mostly Cloudy
4:26 PM 84.9 °F 94.1 °F 75.9 °F 74% 29.75 in 10.0 mi WSW 16.1 mph 21.9 mph N/A   Scattered Clouds
4:33 PM 84.9 °F 94.1 °F 75.9 °F 74% 29.75 in 10.0 mi SW 15.0 mph - N/A   Mostly Cloudy
4:46 PM 84.9 °F 94.1 °F 75.9 °F 74% 29.75 in 10.0 mi WSW 15.0 mph 24.2 mph N/A   Scattered Clouds
4:54 PM 84.9 °F 94.1 °F 75.9 °F 74% 29.73 in 10.0 mi SW 12.7 mph 21.9 mph N/A   Scattered Clouds
5:54 PM 84.0 °F 92.6 °F 75.9 °F 76% 29.75 in 10.0 mi SW 10.4 mph - N/A   Scattered Clouds
6:54 PM 82.9 °F 90.8 °F 75.9 °F 79% 29.76 in 10.0 mi SSW 9.2 mph - N/A   Partly Cloudy
7:54 PM 82.9 °F 90.8 °F 75.9 °F 79% 29.78 in 10.0 mi SW 6.9 mph 17.3 mph N/A   Partly Cloudy
8:54 PM 82.9 °F 90.8 °F 75.9 °F 79% 29.77 in 10.0 mi SSW 6.9 mph - N/A   Clear
9:54 PM 82.9 °F 90.8 °F 75.9 °F 79% 29.78 in 10.0 mi SW 9.2 mph - N/A   Partly Cloudy
10:54 PM 82.9 °F 90.8 °F 75.9 °F 79% 29.78 in 10.0 mi SSW 8.1 mph - N/A   Clear
11:54 PM 82.4 °F 92.4 °F 78.8 °F 89% 29.79 in 10.0 mi SW 9.2 mph - N/A   Scattered Clouds